Weather in Calarasi

Moldova     47°15′11″N   28°18′56″E
В апреле 2022 года жителям России запретили посещать сайт meteo.paraplan.net по решению Генеральной прокуратуры. Аудитория сайта уменьшилась в 10 раз. Владельцы сайта не видят смысла в поддержке погодного сервера в таких условиях. Сайт будет закрыт в октябре.
temp.,
°C
wind,
m/s
gust,
m/s
humid.,
%
clouds,
%
prec.,
mm/h
press.,
hPa
HPBL,
m
3 october, mon
mon300:00+11w411715 0.0 1011467
03:00+12w5126030 0.0 1010993
06:00+11wsw386090 0.0 1010406
09:00+12wsw51064100 0.1 1010564
12:00+13w5863100 0.4 1011954
15:00+16wnw584267 0.4 10102067
18:00+12nw81071100 0.1 1011822
21:00+8wsw118421 0.8 101210
4 october, tue
tue400:00+10sw2680100 0.0 1012274
03:00+9wnw5137774 0.1 1013573
06:00+9wnw51376100 0.0 1014580
09:00+10wnw61168100 0.0 1016876
12:00+14wnw795396 0.0 10171471
15:00+15wnw6841100 0.0 10171958
18:00+13wnw4856100 0.0 1019671
21:00+11nw3106693 0.0 1021400
5 october, wed
wed500:00+9w237374 0.0 102349
03:00+9w277481 0.0 1024296
06:00+10w2773100 0.0 1025307
09:00+11w2870100 0.0 1027387
12:00+15wnw45487 0.0 10261304
15:00+17wnw4540100 0.0 10261586
18:00+15wnw2247100 0.0 102614
21:00+12se1151100 0.0 102610
6 october, thu
thu600:00+11sse2252100 0.0 102711
03:00+11s2252100 0.0 102613
06:00+11s1154100 0.0 102611
09:00+13s115099 0.0 102667
12:00+19sw223686 0.0 1026647
15:00+21w2230100 0.0 1025987
18:00+18nw224187 0.0 102517
21:00+14nw2249100 0.0 102713
7 october, fri
fri700:00+13nw335648 0.0 102830
03:00+12nw357393 0.0 102989
06:00+10nw359229 0.0 102983
09:00+13nnw368346 0.0 1029269
12:00+17n566533 0.0 1029771
15:00+19n45508 0.0 10271172
18:00+17nne335111 0.0 102751
21:00+13ne115623 0.0 102710